Simultaneous Nadir Overpasses (SNOs) Predictions

Prediction of SNOs between GOES-15 and METOP-B Satellite Orbit:

Table of predicted SNOs for the next 14.0 days since TLE Epoch: 5/12/2017
Index Date Time (GOES-15) GOES-15 Lat,Lon METOP-B Lat,Lon Distance(km) Time Diff (sec)
1 05/13/2017 06:24:27 0.11,-135.16 0.59,-133.06 238.89 80
2 05/14/2017 18:43:19 -0.11,-135.16 0.43,-137.63 280.79 80
3 05/15/2017 18:19:59 -0.12,-135.13 -0.70,-132.63 284.55 80
4 05/17/2017 06:38:58 0.12,-135.02 -0.35,-137.23 250.63 80
5 05/18/2017 06:20:58 0.12,-134.99 0.72,-132.22 314.63 80
6 05/19/2017 18:39:49 -0.13,-134.98 0.30,-136.78 205.87 80
7 05/20/2017 18:16:30 -0.13,-134.94 -0.83,-131.79 358.81 80
8 05/22/2017 06:35:29 0.13,-134.83 -0.21,-136.39 177.56 80
9 05/23/2017 06:17:29 0.13,-134.78 0.87,-131.38 386.94 80
10 05/24/2017 18:36:20 -0.13,-134.77 0.16,-135.95 134.64 80
11 05/25/2017 18:13:00 -0.13,-134.72 -0.97,-130.95 429.07 80




NCC Satellite Simultaneous Nadir Overpasses (SNOs) Prediction Service
